{"data":{"norad_id":67331,"intl_designator":"2026-002AC","name":"STARLINK-36494","alt_names":[],"object_type":"PAYLOAD","status":"ACTIVE","operator":null,"country":"US","launch_date":"2026-01-04","launch_site_code":"AFETR","launch_vehicle":null,"mission":null,"orbit_class":"UNKNOWN","rcs_meters":null,"size_class":null,"mass_kg":null,"dimensions":null,"purposes":["comms"],"wikipedia_slug":null,"has_3d_model":false,"image_url":null,"decayed_at":null,"tle_current":{"epoch":"2026-05-25T00:41:35.084256Z","epoch_age_seconds":68968,"freshness":"FRESH","line1":"1 67331U 26002AC  26145.02887829  .00018458  00000+0  67836-3 0  9990","line2":"2 67331  43.0018 254.1709 0001990 283.4752  76.5878 15.27590018 22919","mean_motion":15.27590018,"eccentricity":0.000199,"inclination_deg":43.0018,"raan_deg":254.1709,"arg_perigee_deg":283.4752,"mean_anomaly_deg":76.5878,"bstar":0.00067836,"rev_number":2291,"period_min":94.266130508323,"perigee_km":481.65372864399,"apogee_km":484.38446877128,"semimajor_km":6861.1560987076,"source":"CELESTRAK","updated_at":"2026-05-25T13:38:21.520754Z"}}}